Weather Service Report


510 
ASUS42 KRAH 280110
RWRRAH
NORTH CAROLINA WEATHER ROUNDUP
NATIONAL WEATHER SERVICE RALEIGH NC
800 PM EST TUE JAN 27 2015

NOTE: "FAIR" INDICATES FEW OR NO CLOUDS BELOW 12,000 FEET WITH NO
SIGNIFICANT WEATHER AND/OR OBSTRUCTIONS TO VISIBILITY.

NCZ001-053-055-056-065-067-280200-
WESTERN NORTH CAROLINA
  
CITY           SKY/WX    TMP DP  RH WIND       PRES   REMARKS
ASHEVILLE      CLOUDY    30  23  75 N17G24    29.97R WCI  18          
JEFFERSON      PTCLDY    24  10  53 NW15G28   29.87R WCI  12          
MORGANTON      CLEAR     35  20  55 NW10G18   30.01R WCI  27          
HICKORY        CLEAR     33  19  56 VRB5      29.96R WCI  29          
RUTHERFORDTON  PTCLDY    33  22  63 CALM      29.99R                  
MOUNT AIRY     CLEAR     34 -19   9 NW8G21    29.95S WCI  28          
BOONE          CLEAR     24  15  66 W16G28    29.89R WCI  11          
$$
 
NCZ021-022-025-041-071-084-088-280200-
CENTRAL NORTH CAROLINA
  
CITY           SKY/WX    TMP DP  RH WIND       PRES   REMARKS
CHARLOTTE      PTCLDY    37  19  48 N13       29.97R WCI  29          
GREENSBORO     PTCLDY    34   7  32 NW9       29.91R WCI  27          
WINSTON-SALEM  CLEAR     36   2  23 CALM      29.94R                  
RALEIGH-DURHAM PTCLDY    37  11  34 VRB5      29.89R WCI  33          
FORT BRAGG     FAIR      32  19  59 W5        29.91R WCI  27          
FAYETTEVILLE   FAIR      39  17  41 W7        29.91R WCI  34          
BURLINGTON     CLEAR     37   4  25 NW9       29.91R WCI  30          
LAURINBURG     CLEAR     36  16  44 NW5       29.93R WCI  32          
$$
 
NCZ011-015-027-028-043-044-047-080-103-280200-
NORTHEASTERN NORTH CAROLINA
  
CITY           SKY/WX    TMP DP  RH WIND       PRES   REMARKS
ROCKY MT-WILSO CLEAR     29  26  89 CALM      29.90R                  
GREENVILLE     CLOUDY    36  30  80 CALM      29.92R                  
WASHINGTON     CLOUDY    35  29  79 CALM      29.90R                  
ELIZABETH CITY CLOUDY    34  28  79 W9        29.87R WCI  27          
MANTEO         CLOUDY    36  30  80 NW9       29.86R WCI  29          
CAPE HATTERAS  CLOUDY    36  31  82 NW15G25   29.86R WCI  27          
$$
 
NCZ078-087-090-091-093-098-101-280200-
SOUTHEASTERN NORTH CAROLINA
  
CITY           SKY/WX    TMP DP  RH WIND       PRES   REMARKS
LUMBERTON      CLEAR     38  21  50 W5        29.92R WCI  34          
GOLDSBORO      FAIR      30  30  98 CALM      29.89R                  
KINSTON        FAIR      28  28 100 CALM      29.91R                  
KENANSVILLE    CLEAR     29  27  92 CALM      29.91R                  
NEW BERN       PTCLDY    36  27  69 NW3       29.90R                  
CHERRY POINT   MOCLDY    36  27  69 NW6       29.90R WCI  31          
BEAUFORT       CLOUDY    38  30  73 NW10      29.89R WCI  31          
JACKSONVILLE   CLEAR     33  29  85 CALM      29.90R                  
WILMINGTON     CLEAR     35  28  75 CALM      29.92R                  
$$


Return to Home page


Western Regional Climate Center, wrcc@dri.edu